EW6171 Weather Reports


Display with metric or nautical units.
time (UTC)temp
F
wind
direction
speed
MPH
gust
MPH
rain 1hr
in
rain 24hr
in
rain mn
in
humidity
%
barometer
mb
20260510092539 0 107 0.0 0.0 0.00 0.07 0.00 1007.8
20260510092030 0 107 0.0 0.0 0.00 0.07 0.00 1007.8
20260510091519 0 107 0.0 0.0 0.00 0.07 0.00 1007.7
20260510091010 0 107 0.0 1.0 0.00 0.07 0.00 1007.7
20260510090500 0 107 0.0 1.0 0.00 0.07 0.00 1007.8
20260510085950 0 107 0.0 1.0 0.00 0.07 0.00 1007.8
20260510085440 0 107 0.0 1.0 0.00 0.07 0.00 1007.9
20260510084930 0 133 0.0 1.0 0.00 0.07 0.00 1007.9
20260510084419 0 150 0.0 2.0 0.00 0.07 0.00 1007.9
20260510083909 0 150 1.0 3.0 0.00 0.07 0.00 1007.8
20260510083630 0 143 1.0 4.0 0.00 0.07 0.00 1007.9
20260510082614 0 143 1.0 4.0 0.00 0.07 0.00 1007.9
20260510082104 0 10 1.0 4.0 0.00 0.07 0.00 1008.0
20260510081324 0 144 1.0 2.0 0.00 0.07 0.00 1008.0
20260510081044 0 148 1.0 2.0 0.00 0.07 0.00 1007.9
20260510080303 0 142 0.0 2.0 0.00 0.07 0.00 1007.9
20260510080034 0 156 0.0 2.0 0.00 0.07 0.00 1007.9
20260510075253 0 163 0.0 3.0 0.00 0.07 0.00 1007.9
20260510074743 0 144 1.0 3.0 0.00 0.07 0.00 1007.9
20260510074232 0 138 1.0 3.0 0.00 0.07 0.00 1007.9
20260510073721 0 123 1.0 2.0 0.00 0.07 0.00 1008.0
20260510073219 0 111 1.0 2.0 0.00 0.07 0.00 1008.0
20260510072710 0 115 1.0 3.0 0.00 0.07 0.00 1007.9
20260510072157 0 143 1.0 3.0 0.00 0.07 0.00 1007.9
20260510071646 0 155 0.0 2.0 0.00 0.07 0.00 1007.8
20260510071136 0 156 1.0 3.0 0.00 0.07 0.00 1007.9
20260510070625 0 156 0.0 3.0 0.00 0.07 0.00 1007.9
20260510070107 0 142 0.0 4.0 0.00 0.07 0.00 1008.0
20260510065828 0 142 1.0 4.0 0.00 0.07 0.00 1008.1
20260510065317 0 144 2.0 4.0 0.00 0.07 0.00 1008.2
20260510064537 0 140 2.0 6.0 0.00 0.07 0.00 1008.2
20260510064025 0 122 3.0 4.0 0.00 0.07 0.00 1008.2
20260510063515 0 106 3.0 6.0 0.00 0.07 0.00 1008.3
20260510063006 0 107 3.0 6.0 0.00 0.07 0.00 1008.4
20260510062455 0 84 3.0 8.0 0.00 0.07 0.00 1008.5
20260510062216 0 104 3.0 8.0 0.00 0.07 0.00 1008.6
20260510061706 0 94 3.0 5.0 0.00 0.07 0.00 1008.7
20260510061152 0 73 4.0 7.0 0.00 0.07 0.00 1008.7
20260510060411 0 88 4.0 8.0 0.00 0.07 0.00 1008.7
20260510055912 0 65 4.0 8.0 0.00 0.07 0.00 1008.9
20260510055354 0 78 4.0 8.0 0.00 0.07 0.00 1008.7
20260510054841 0 96 4.0 8.0 0.00 0.07 0.00 1008.6
20260510054331 0 107 4.0 8.0 0.00 0.07 0.00 1008.7
20260510053821 0 92 4.0 8.0 0.00 0.07 0.00 1008.7
20260510053311 0 86 4.0 7.0 0.00 0.07 0.00 1008.6
20260510053032 0 79 3.0 7.0 0.00 0.07 0.00 1008.7
20260510052259 0 108 3.0 7.0 0.00 0.07 0.00 1008.5
20260510051749 0 102 3.0 7.0 0.00 0.07 0.00 1008.4
20260510051240 0 102 3.0 7.0 0.00 0.07 0.00 1008.3
20260510050727 0 92 3.0 4.0 0.00 0.07 0.00 1008.4
20260510050217 0 109 3.0 4.0 0.00 0.07 0.00 1008.3
20260510045701 0 111 2.0 4.0 0.00 0.07 0.07 1008.2
20260510045423 0 110 2.0 4.0 0.00 0.07 0.07 1008.2
20260510044641 0 99 2.0 4.0 0.00 0.07 0.07 1008.1
20260510044129 0 103 3.0 5.0 0.00 0.07 0.07 1008.1
20260510043619 0 88 5.0 9.0 0.00 0.07 0.07 1008.2
20260510043109 0 85 5.0 9.0 0.00 0.07 0.07 1008.3
20260510042559 0 86 4.0 9.0 0.00 0.07 0.07 1008.4
20260510042047 0 92 3.0 6.0 0.00 0.07 0.07 1008.2
20260510041537 0 126 3.0 4.0 0.00 0.07 0.07 1008.0
20260510041027 0 119 3.0 4.0 0.00 0.07 0.07 1007.9
20260510040518 0 114 3.0 9.0 0.00 0.07 0.07 1007.9
20260510040238 0 96 3.0 9.0 0.00 0.07 0.07 1007.8
20260510035457 0 146 6.0 10.0 0.00 0.07 0.07 1007.3
20260510034946 0 200 7.0 10.0 0.00 0.07 0.07 1006.9
20260510034436 0 192 7.0 10.0 0.00 0.07 0.07 1006.9
20260510033934 0 221 7.0 10.0 0.00 0.07 0.07 1006.9
20260510033656 0 201 6.0 10.0 0.00 0.07 0.07 1007.0
20260510033145 0 192 5.0 9.0 0.00 0.07 0.07 1007.1
20260510032404 0 10 3.0 8.0 0.00 0.07 0.07 1007.2
20260510031849 0 10 2.0 4.0 0.00 0.07 0.07 1007.2
20260510031330 0 183 2.0 4.0 0.00 0.07 0.07 1007.1
20260510030821 0 162 2.0 4.0 0.00 0.07 0.07 1007.1
20260510030542 0 142 3.0 4.0 0.00 0.07 0.07 1007.2
20260510030035 0 10 3.0 5.0 0.00 0.07 0.07 1007.1
20260510025525 0 10 3.0 5.0 0.00 0.07 0.07 1007.0
20260510024746 0 10 2.0 5.0 0.00 0.07 0.07 1006.9
20260510024240 0 156 2.0 4.0 0.00 0.07 0.07 1007.0
20260510023724 0 105 3.0 4.0 0.00 0.07 0.07 1007.0
20260510023216 0 94 2.0 4.0 0.00 0.07 0.07 1007.0
20260510022710 0 90 0.0 2.0 0.00 0.07 0.07 1006.9
20260510022207 0 122 0.0 2.0 0.00 0.07 0.07 1006.8
20260510021706 0 122 0.0 2.0 0.00 0.07 0.07 1006.7
20260510020152 0 185 1.0 7.0 0.00 0.07 0.07 1006.1
20260510015648 0 196 2.0 7.0 0.00 0.07 0.07 1005.8
20260510015417 0 206 4.0 7.0 0.00 0.07 0.07 1005.7
20260510014640 0 210 6.0 9.0 0.00 0.07 0.07 1005.4
20260510014134 0 212 6.0 9.0 0.00 0.07 0.07 1005.2
20260510013628 0 223 6.0 8.0 0.00 0.07 0.07 1005.3
20260510013124 0 216 5.0 8.0 0.00 0.07 0.07 1005.0
20260510012621 0 10 6.0 10.0 0.00 0.07 0.07 1005.3
20260510012115 0 204 7.0 10.0 0.00 0.07 0.07 1005.2
20260510011842 0 219 7.0 9.0 0.00 0.07 0.07 1005.2
20260510011106 0 233 6.0 9.0 0.00 0.07 0.07 1005.4
20260510010836 0 229 5.0 9.0 0.00 0.07 0.07 1005.4
20260510010330 0 10 5.0 8.0 0.00 0.07 0.07 1005.5
20260510005554 0 206 5.0 8.0 0.00 0.07 0.07 1005.5
20260510005051 0 10 4.0 8.0 0.00 0.07 0.07 1005.7
20260510004548 0 10 3.0 5.0 0.00 0.07 0.07 1005.7
20260510004041 0 10 2.0 5.0 0.00 0.07 0.07 1005.8
20260510003535 0 179 3.0 6.0 0.00 0.07 0.07 1005.7
20260510003034 0 10 4.0 10.0 0.00 0.07 0.07 1005.7
20260510002530 0 10 4.0 10.0 0.00 0.07 0.07 1005.6
20260510002026 0 10 6.0 10.0 0.00 0.07 0.07 1005.6
20260510001519 0 10 7.0 10.0 0.00 0.07 0.07 1005.5
20260510001017 0 10 7.0 10.0 0.00 0.07 0.07 1005.4
20260510000513 0 10 7.0 10.0 0.00 0.07 0.07 1005.4
20260510000241 0 10 7.0 10.0 0.00 0.07 0.07 1005.4
20260509235507 0 10 7.0 10.0 0.00 0.07 0.07 1005.3
20260509235004 0 10 5.0 9.0 0.00 0.07 0.07 1005.3
20260509234458 0 10 4.0 9.0 0.00 0.07 0.07 1005.4
20260509233952 0 177 4.0 9.0 0.00 0.07 0.07 1005.3
20260509233449 0 176 5.0 9.0 0.00 0.07 0.07 1005.3
20260509232940 0 169 6.0 10.0 0.00 0.07 0.07 1005.2
20260509232427 0 10 6.0 10.0 0.00 0.07 0.07 1005.3
20260509231407 0 10 8.0 11.0 0.00 0.07 0.07 1005.2
20260509231130 0 10 9.0 12.0 0.00 0.07 0.07 1005.2
20260509230611 0 10 9.0 12.0 0.00 0.07 0.07 1005.1
20260509225829 0 147 9.0 11.0 0.00 0.07 0.07 1005.1
20260509225320 0 10 9.0 11.0 0.00 0.07 0.07 1005.1
20260509224810 0 150 8.0 11.0 0.00 0.07 0.07 1005.1
20260509224300 0 10 8.0 11.0 0.00 0.07 0.07 1005.2
20260509224020 0 10 9.0 11.0 0.00 0.07 0.07 1005.3
20260509223237 0 10 7.0 11.0 0.00 0.07 0.07 1005.4
20260509222727 0 10 6.0 10.0 0.00 0.07 0.07 1005.3
20260509222217 0 163 7.0 10.0 0.00 0.07 0.07 1005.2
20260509221707 0 10 7.0 10.0 0.00 0.07 0.07 1005.3
20260509221157 0 138 6.0 10.0 0.00 0.07 0.07 1005.2
20260509220647 0 138 7.0 10.0 0.00 0.07 0.07 1005.2
20260509220137 0 10 7.0 11.0 0.00 0.07 0.07 1005.3
20260509215634 0 10 6.0 11.0 0.00 0.07 0.07 1005.2
20260509215123 0 10 6.0 10.0 0.00 0.07 0.07 1005.3
20260509214613 0 183 7.0 11.0 0.00 0.07 0.07 1005.3
20260509214105 0 10 7.0 11.0 0.00 0.07 0.07 1005.1
20260509213553 0 163 3.0 9.0 0.00 0.07 0.07 1005.2
20260509213034 0 10 1.0 5.0 0.00 0.07 0.07 1005.3
20260509212524 0 172 2.0 5.0 0.00 0.07 0.07 1005.2
20260509212013 0 167 2.0 5.0 0.00 0.07 0.07 1005.2
20260509211457 0 178 2.0 6.0 0.00 0.07 0.07 1005.2
20260509211218 0 10 2.0 6.0 0.00 0.07 0.07 1005.2
20260509210448 0 106 1.0 4.0 0.00 0.07 0.07 1005.2
20260509205938 0 178 1.0 7.0 0.00 0.07 0.07 1005.3
20260509205426 0 102 0.0 7.0 0.00 0.07 0.07 1005.3
20260509205146 0 90 1.0 3.0 0.00 0.07 0.07 1005.4
20260509204405 0 60 1.0 3.0 0.00 0.07 0.07 1005.3
20260509203855 0 67 1.0 5.0 0.00 0.07 0.07 1005.4
20260509203616 0 150 2.0 5.0 0.00 0.07 0.07 1005.4
20260509202835 0 116 2.0 6.0 0.00 0.07 0.07 1005.5
20260509202556 0 176 1.0 6.0 0.00 0.07 0.07 1005.6
20260509201815 0 203 1.0 4.0 0.00 0.07 0.07 1005.6
20260509201536 0 106 1.0 4.0 0.00 0.07 0.07 1005.7
20260509200755 0 98 1.0 4.0 0.00 0.07 0.07 1005.7
20260509200245 0 82 0.0 4.0 0.00 0.07 0.07 1005.8
20260509195735 0 87 0.0 3.0 0.00 0.07 0.07 1005.8
20260509195224 0 15 1.0 5.0 0.00 0.07 0.07 1005.9
20260509194714 0 66 0.0 5.0 0.00 0.07 0.07 1005.9
20260509194436 0 351 0.0 3.0 0.00 0.07 0.07 1006.0
20260509193648 0 309 0.0 3.0 0.00 0.07 0.07 1006.1
20260509192908 0 196 1.0 4.0 0.00 0.07 0.07 1006.2
20260509192131 0 277 2.0 8.0 0.00 0.07 0.07 1006.4
20260509191622 0 267 1.0 6.0 0.00 0.07 0.07 1006.4
20260509191105 0 40 1.0 8.0 0.00 0.07 0.07 1006.3
20260509190556 0 10 1.0 8.0 0.00 0.07 0.07 1006.6
20260509190045 0 354 0.0 4.0 0.00 0.07 0.07 1006.6